This demonstration page uses our WeatherBlox Daily Observations layout. Learn more.

Left ArrowRight Arrow

41.76142, -88.44369

Hourly Observations for May 11, 2023

Temp ( °F °C ) Dew Point ( °F °C ) Humidity (%) Winds ( mph kmh ) Pressure ( in mb ) Visibility ( mi km ) Precip ( " mm )
12:52 am 00:52 Clear 54 12.2 43 6.1 66 66 NE 3 6 30.10 1019 10 16 0.00 0.00
1:52 am 01:52 Clear 54 12.2 43 6.1 66 66 E 3 6 30.09 1019 9 14 0.00 0.00
2:52 am 02:52 Clear 50 10 43 6.1 77 77 NE 5 7 30.09 1019 9 14 0.00 0.00
3:52 am 03:52 Clear 52 11.1 43 6.1 71 71 E 3 6 30.08 1019 9 14 0.00 0.00
4:52 am 04:52 Clear 53 11.7 43 6.1 68 68 SE 5 7 30.07 1018 9 14 0.00 0.00
5:52 am 05:52 Sunny 52 11.1 43 6.1 71 71 SE 5 7 30.08 1019 8 13 0.00 0.00
6:52 am 06:52 Mostly Cloudy 58 14.4 48 8.9 70 70 ENE 3 6 30.10 1019 8 13 0.00 0.00
7:52 am 07:52 Sunny 63 17.2 48 8.9 58 58 SE 8 13 30.10 1019 9 14 0.00 0.00
8:52 am 08:52 Mostly Cloudy 69 20.6 47 8.3 45 45 SE 10 17 30.11 1020 9 14 0.00 0.00
9:52 am 09:52 Sunny 73 22.8 47 8.3 39 39 S 12 19 30.09 1019 9 14 0.00 0.00
10:52 am 10:52 Mostly Sunny 76 24.4 48 8.9 37 37 SSE 13 20 30.09 1019 10 16 0.00 0.00
11:52 am 11:52 Sunny 78 25.6 47 8.3 33 33 S 10 17 30.08 1019 8 13 0.00 0.00
12:52 pm 12:52 Sunny 80 26.7 45 7.2 29 29 SE 10 17 30.07 1018 10 16 0.00 0.00
1:52 pm 13:52 Sunny 80 26.7 47 8.3 31 31 SE 13 20 30.04 1017 10 16 0.00 0.00
2:52 pm 14:52 Sunny 81 27.2 45 7.2 28 28 E 9 15 30.02 1017 10 16 0.00 0.00
3:52 pm 15:52 Sunny 81 27.2 45 7.2 28 28 SE 9 15 30.01 1016 10 16 0.00 0.00
4:52 pm 16:52 Sunny 80 26.7 45 7.2 29 29 ESE 10 17 30.00 1016 10 16 0.00 0.00
5:52 pm 17:52 Sunny 80 26.7 46 7.8 30 30 SE 7 11 29.99 1016 10 16 0.00 0.00
6:52 pm 18:52 Partly Cloudy 78 25.6 45 7.2 31 31 ESE 9 15 29.98 1015 10 16 0.00 0.00
7:52 pm 19:52 Mostly Cloudy 76 24.4 44 6.7 32 32 ESE 8 13 29.98 1015 10 16 0.00 0.00
8:52 pm 20:52 Clear 73 22.8 45 7.2 37 37 E 12 19 29.98 1015 10 16 0.00 0.00
9:52 pm 21:52 Clear 70 21.1 43 6.1 38 38 E 10 17 29.99 1016 10 16 0.00 0.00
10:52 pm 22:52 Clear 69 20.6 44 6.7 40 40 E 8 13 29.99 1016 10 16 0.00 0.00
11:52 pm 23:52 Partly Cloudy 67 19.4 45 7.2 45 45 Calm 29.98 1015 10 16 0.00 0.00

Powered by Vaisala Xweather